TimeCDT,TemperatureF,Dew PointF,Humidity,Sea Level PressureIn,VisibilityMPH,Wind Direction,Wind SpeedMPH,Gust SpeedMPH,PrecipitationIn,Events,Conditions,WindDirDegrees,DateUTC
12:12 AM,32.0,28.4,87,29.87,10.0,West,13.8,20.7,N/A,,Overcast,260,2012-10-26 05:12:00
12:33 AM,32.0,28.4,87,29.88,10.0,West,11.5,17.3,N/A,,Overcast,260,2012-10-26 05:33:00
12:53 AM,32.0,30.2,93,29.88,10.0,West,8.1,-,N/A,,Overcast,260,2012-10-26 05:53:00
1:12 AM,32.0,30.2,93,29.88,5.0,West,9.2,-,N/A,Snow,Light Snow,260,2012-10-26 06:12:00
1:33 AM,32.0,30.2,93,29.89,7.0,West,9.2,17.3,N/A,,Overcast,260,2012-10-26 06:33:00
1:53 AM,32.0,30.2,93,29.89,10.0,WSW,15.0,20.7,N/A,,Overcast,250,2012-10-26 06:53:00
2:12 AM,32.0,30.2,93,29.90,10.0,WSW,15.0,20.7,N/A,,Overcast,250,2012-10-26 07:12:00
2:33 AM,33.8,30.2,87,29.90,10.0,WSW,10.4,19.6,N/A,,Overcast,250,2012-10-26 07:33:00
2:53 AM,33.8,30.2,87,29.91,7.0,West,13.8,23.0,N/A,,Overcast,260,2012-10-26 07:53:00
3:12 AM,33.8,30.2,87,29.92,5.0,West,16.1,25.3,N/A,Snow,Light Snow,270,2012-10-26 08:12:00
3:33 AM,32.0,28.4,87,29.93,7.0,West,15.0,19.6,N/A,Snow,Light Snow,260,2012-10-26 08:33:00
3:53 AM,33.8,28.4,81,29.94,10.0,West,12.7,20.7,N/A,,Overcast,270,2012-10-26 08:53:00
4:12 AM,32.0,28.4,87,29.94,10.0,West,19.6,26.5,N/A,,Overcast,270,2012-10-26 09:12:00
4:33 AM,32.0,28.4,87,29.96,10.0,West,10.4,25.3,N/A,,Overcast,270,2012-10-26 09:33:00
4:53 AM,32.0,26.6,80,29.96,10.0,West,10.4,18.4,N/A,,Overcast,270,2012-10-26 09:53:00
5:12 AM,32.0,28.4,87,29.97,7.0,West,15.0,19.6,N/A,Snow,Light Snow,270,2012-10-26 10:12:00
5:33 AM,32.0,28.4,87,29.98,10.0,West,12.7,19.6,N/A,,Overcast,260,2012-10-26 10:33:00
5:53 AM,32.0,26.6,80,29.98,10.0,West,16.1,27.6,N/A,,Mostly Cloudy,270,2012-10-26 10:53:00
6:12 AM,30.2,26.6,86,29.99,5.0,West,9.2,19.6,N/A,Snow,Light Snow,270,2012-10-26 11:12:00
6:33 AM,30.2,26.6,86,30.00,10.0,West,13.8,27.6,N/A,,Overcast,270,2012-10-26 11:33:00
6:52 AM,30.2,24.8,80,30.01,10.0,West,16.1,27.6,N/A,,Overcast,280,2012-10-26 11:52:00
7:13 AM,30.2,24.8,80,30.02,10.0,West,12.7,24.2,N/A,,Overcast,280,2012-10-26 12:13:00
7:33 AM,30.2,24.8,80,30.03,10.0,West,9.2,-,N/A,,Overcast,280,2012-10-26 12:33:00
7:52 AM,30.2,24.8,80,30.04,10.0,WNW,12.7,23.0,N/A,,Overcast,290,2012-10-26 12:52:00
8:13 AM,30.2,24.8,80,30.05,10.0,West,11.5,23.0,N/A,,Overcast,280,2012-10-26 13:13:00
8:32 AM,30.2,24.8,80,30.06,10.0,West,13.8,18.4,N/A,,Overcast,280,2012-10-26 13:32:00
8:53 AM,30.2,24.8,80,30.07,10.0,West,13.8,20.7,N/A,,Overcast,270,2012-10-26 13:53:00
9:13 AM,30.2,23.0,75,30.08,10.0,West,11.5,19.6,N/A,,Overcast,270,2012-10-26 14:13:00
9:32 AM,30.2,24.8,80,30.08,10.0,West,18.4,24.2,N/A,,Overcast,280,2012-10-26 14:32:00
9:53 AM,30.2,24.8,80,30.09,10.0,West,15.0,21.9,N/A,,Overcast,260,2012-10-26 14:53:00
10:13 AM,32.0,24.8,75,30.09,10.0,West,17.3,25.3,N/A,,Overcast,260,2012-10-26 15:13:00
10:32 AM,33.8,24.8,70,30.10,10.0,West,12.7,28.8,N/A,,Overcast,260,2012-10-26 15:32:00
10:53 AM,32.0,24.8,75,30.10,10.0,West,17.3,27.6,N/A,,Overcast,260,2012-10-26 15:53:00
11:13 AM,32.0,24.8,75,30.11,10.0,West,15.0,23.0,N/A,,Overcast,260,2012-10-26 16:13:00
11:32 AM,32.0,24.8,75,30.12,10.0,West,13.8,18.4,N/A,,Overcast,260,2012-10-26 16:32:00
11:53 AM,32.0,23.0,69,30.12,10.0,West,15.0,28.8,N/A,,Overcast,260,2012-10-26 16:53:00
12:13 PM,32.0,21.2,64,30.13,10.0,West,13.8,29.9,N/A,,Overcast,270,2012-10-26 17:13:00
12:33 PM,32.0,24.8,75,30.13,10.0,WSW,11.5,19.6,N/A,,Overcast,250,2012-10-26 17:33:00
12:52 PM,32.0,24.8,75,30.13,10.0,West,12.7,17.3,N/A,,Overcast,260,2012-10-26 17:52:00
1:13 PM,32.0,24.8,75,30.14,10.0,WSW,12.7,21.9,N/A,,Overcast,250,2012-10-26 18:13:00
1:33 PM,32.0,23.0,69,30.14,10.0,West,17.3,21.9,N/A,,Overcast,260,2012-10-26 18:33:00
1:52 PM,32.0,21.2,64,30.14,10.0,West,17.3,23.0,N/A,,Overcast,260,2012-10-26 18:52:00
2:13 PM,32.0,21.2,64,30.14,10.0,WSW,16.1,24.2,N/A,,Overcast,250,2012-10-26 19:13:00
2:33 PM,32.0,21.2,64,30.14,10.0,WSW,15.0,21.9,N/A,,Overcast,240,2012-10-26 19:33:00
2:53 PM,32.0,21.2,64,30.14,10.0,West,12.7,20.7,N/A,,Overcast,260,2012-10-26 19:53:00
3:13 PM,32.0,21.2,64,30.14,10.0,West,15.0,21.9,N/A,,Overcast,260,2012-10-26 20:13:00
3:32 PM,32.0,21.2,64,30.15,10.0,West,13.8,23.0,N/A,,Overcast,280,2012-10-26 20:32:00
3:53 PM,32.0,21.2,64,30.15,10.0,West,16.1,20.7,N/A,,Overcast,270,2012-10-26 20:53:00
4:12 PM,30.2,19.4,64,30.16,10.0,West,15.0,27.6,N/A,,Overcast,260,2012-10-26 21:12:00
4:33 PM,30.2,21.2,69,30.16,10.0,West,8.1,-,N/A,,Overcast,270,2012-10-26 21:33:00
4:53 PM,30.2,21.2,69,30.16,10.0,West,10.4,18.4,N/A,,Overcast,260,2012-10-26 21:53:00
5:12 PM,30.2,21.2,69,30.16,10.0,West,6.9,-,N/A,,Mostly Cloudy,260,2012-10-26 22:12:00
5:33 PM,30.2,21.2,69,30.17,10.0,WSW,9.2,19.6,N/A,,Overcast,250,2012-10-26 22:33:00
5:53 PM,30.2,21.2,69,30.17,10.0,WSW,8.1,-,N/A,,Overcast,250,2012-10-26 22:53:00
6:13 PM,30.2,21.2,69,30.18,10.0,WSW,10.4,-,N/A,,Overcast,250,2012-10-26 23:13:00
6:32 PM,30.2,21.2,69,30.18,10.0,WSW,9.2,-,N/A,,Overcast,250,2012-10-26 23:32:00
6:53 PM,30.2,23.0,75,30.19,5.0,West,9.2,19.6,N/A,Snow,Light Snow,260,2012-10-26 23:53:00
7:12 PM,30.2,23.0,75,30.19,10.0,West,11.5,17.3,N/A,Snow,Light Snow,260,2012-10-27 00:12:00
7:32 PM,30.2,23.0,75,30.19,10.0,West,9.2,18.4,N/A,,Overcast,260,2012-10-27 00:32:00
7:53 PM,30.2,23.0,75,30.20,10.0,West,10.4,16.1,N/A,,Overcast,270,2012-10-27 00:53:00
8:13 PM,30.2,23.0,75,30.19,10.0,West,8.1,-,N/A,,Overcast,260,2012-10-27 01:13:00
8:32 PM,28.4,24.8,86,30.20,10.0,WSW,6.9,-,N/A,,Overcast,250,2012-10-27 01:32:00
8:53 PM,28.4,24.8,86,30.20,10.0,WSW,5.8,-,N/A,,Mostly Cloudy,250,2012-10-27 01:53:00
9:12 PM,28.4,24.8,86,30.20,10.0,WSW,6.9,-,N/A,,Overcast,250,2012-10-27 02:12:00
9:33 PM,28.4,23.0,80,30.20,10.0,WSW,9.2,-,N/A,Snow,Light Snow,250,2012-10-27 02:33:00
9:53 PM,28.4,23.0,80,30.20,10.0,WSW,6.9,-,N/A,,Overcast,250,2012-10-27 02:53:00
10:12 PM,28.4,21.2,74,30.20,10.0,WSW,8.1,-,N/A,,Overcast,250,2012-10-27 03:12:00
10:33 PM,28.4,21.2,74,30.20,10.0,West,5.8,-,N/A,,Overcast,260,2012-10-27 03:33:00
10:53 PM,28.4,21.2,74,30.20,10.0,WSW,5.8,-,N/A,,Overcast,250,2012-10-27 03:53:00
11:13 PM,28.4,21.2,74,30.20,10.0,WSW,6.9,-,N/A,,Overcast,240,2012-10-27 04:13:00
11:33 PM,28.4,21.2,74,30.20,10.0,WSW,6.9,-,N/A,,Mostly Cloudy,240,2012-10-27 04:33:00
11:52 PM,26.6,21.2,80,30.20,10.0,WSW,5.8,-,N/A,,Clear,250,2012-10-27 04:52:00